CZ-3C DEB, 40206

Orbit data source: Space-Track

CZ-3C DEB, 40206 is space debris in HEO originally from a launch on Fri, 24 Feb 2012 UTC launched from the Xichang Space Center, China (XSC). Debris objects in space refer to the collection of defunct objects orbiting the Earth. Examples of debris include non-operational satellites, rocket bodies, and fragments generated from explosions, collisions, or faulty payload assembly.

Loading next visibility...
Identifier
40206, 2012-008R
Orbit
HEO
Country
Flag of CNCN / PRC
Related business
Manufacturer
CALT
Mission
Spacecraft
Bus & Motor
Unknown
Mass
Unknown
Launch date (UTC)
2012-02-24 (14 years ago)
Launch vehicle
Unknown
Launch site
Xichang Space Center, China (XSC)
Object type
Payload
Rocket body
Debris
Shape & HBR
Unknown shape, 0.1 m
Radar Cross Section
Medium (>0.1 m² and <1 m²)

Expand to show TLE details & history
Last TLE update: 2 days ago

TLE from 2 days ago
0 CZ-3C DEB
1 40206U 12008R   26033.27693108  .00000038  00000-0  14132-2 0  9997
2 40206  18.2269  49.7901 7241269 235.8111  34.3498  2.19239477 90895
Epoch: 2026-02-02T06:38Z
TLE epoch observation values (Epoch: 2026-02-02T06:38:46.845Z)
Latitude
-0.00001°
Longitude
177.72584°
Altitude
13,681.197 km
Speed
4.88 km/s
True Right ascension
03h 19m 34s
True Declination
0° 00' 00"
Sunlit
Object was in daylight at epoch
Visualization orbit readout
Latitude
Unknown
Longitude
Unknown
Altitude
Unknown
Speed
Unknown
Apparent Right ascension
Unknown
Apparent Declination
Unknown
Sunlit
N/A
Visualization observer readout
Local Sidereal Time
09:02:47
Azimuth
Unknown
Elevation
Unknown
Doppler factor
Unknown
Orbital elements
Apogee altitude
36,784.196 km
Perigee altitude
528.157 km
Semi-major axis
25,034.313 km
Eccentricity
0.72413
Inclination
18.2269°
RAAN
49.7901°
Arg. of periapsis
235.8111°
True anomaly
124.32722°
Mean anomaly
34.3498°
Eccentric anomaly
74.2892°
Mean motion
0.54795 °/min
Orbital period
657 mins
BSTAR
0.0014132
Loading maneuver chart data...
Computing Atmospheric mass density...
Loading historical data...
Loading historical data...
Loading historical data...
Loading historical data...
Loading historical data...
Loading historical data...
Loading historical data...

Documentation

Showing up to 5 results
|